owner,sensor,date,latitude,longitude,vertical_datum,direction_of_sea_water_velocity,sea_water_speed,upward_sea_water_velocity,qcFlag 
TABS,ioos:station:wmo:42048:1,2006-02-01T00:00:00Z,27.9396,-96.8429,2.0,237.692032,24.71631445,-99999.0,'11111222,11111222,99999999' 
TABS,ioos:station:wmo:42048:1,2006-02-01T00:30:00Z,27.9396,-96.8429,2.0,242.1681959,24.88904377,-99999.0,'11111222,11111222,99999999' 
TABS,ioos:station:wmo:42048:1,2006-02-01T01:00:00Z,27.9396,-96.8429,2.0,240.9195461,26.19169716,-99999.0,'11111222,11111222,99999999' 
TABS,ioos:station:wmo:42048:1,2006-02-01T01:30:00Z,27.9396,-96.8429,2.0,230.7672568,26.8788467,-99999.0,'11111222,11111222,99999999' 
TABS,ioos:station:wmo:42048:1,2006-02-01T02:00:00Z,27.9396,-96.8429,2.0,231.8385708,24.9403328,-99999.0,'11111222,11111222,99999999' 
TABS,ioos:station:wmo:42048:1,2006-02-01T02:30:00Z,27.9396,-96.8429,2.0,228.236939,25.04325857,-99999.0,'11111222,11111222,99999999' 
TABS,ioos:station:wmo:42048:1,2006-02-01T03:00:00Z,27.9396,-96.8429,2.0,225.4680307,23.35651729,-99999.0,'11111222,11111222,99999999' 
TABS,ioos:station:wmo:42048:1,2006-02-01T03:30:00Z,27.9396,-96.8429,2.0,229.5962227,23.55878817,-99999.0,'11111222,11111222,99999999' 
TABS,ioos:station:wmo:42048:1,2006-02-01T04:00:00Z,27.9396,-96.8429,2.0,223.5407979,23.05208234,-99999.0,'11111222,11111222,99999999' 
TABS,ioos:station:wmo:42048:1,2006-02-01T04:30:00Z,27.9396,-96.8429,2.0,227.8378943,23.41982067,-99999.0,'11111222,11111222,99999999' 
TABS,ioos:station:wmo:42048:1,2006-02-01T05:00:00Z,27.9396,-96.8429,2.0,223.9952082,23.39468743,-99999.0,'11111222,11111222,99999999' 
TABS,ioos:station:wmo:42048:1,2006-02-01T05:30:00Z,27.9396,-96.8429,2.0,230.8140166,23.31303927,-99999.0,'11111222,11111222,99999999' 
TABS,ioos:station:wmo:42048:1,2006-02-01T06:00:00Z,27.9396,-96.8429,2.0,229.7517212,23.21633907,-99999.0,'11111222,11111222,99999999' 
TABS,ioos:station:wmo:42048:1,2006-02-01T06:30:00Z,27.9396,-96.8429,2.0,226.74772,23.8759649,-99999.0,'11111222,11111222,99999999' 
TABS,ioos:station:wmo:42048:1,2006-02-01T07:00:00Z,27.9396,-96.8429,2.0,228.3378609,23.55834459,-99999.0,'11111222,11111222,99999999' 
TABS,ioos:station:wmo:42048:1,2006-02-01T07:30:00Z,27.9396,-96.8429,2.0,227.3462432,21.41500876,-99999.0,'11111222,11111222,99999999' 
TABS,ioos:station:wmo:42048:1,2006-02-01T08:00:00Z,27.9396,-96.8429,2.0,231.8355325,23.28794109,-99999.0,'11111222,11111222,99999999' 
TABS,ioos:station:wmo:42048:1,2006-02-01T08:30:00Z,27.9396,-96.8429,2.0,228.1913035,22.86086613,-99999.0,'11111222,11111222,99999999' 
TABS,ioos:station:wmo:42048:1,2006-02-01T09:00:00Z,27.9396,-96.8429,2.0,228.9140008,22.58109829,-99999.0,'11111222,11111222,99999999' 
TABS,ioos:station:wmo:42048:1,2006-02-01T09:30:00Z,27.9396,-96.8429,2.0,232.0519738,24.88040193,-99999.0,'11111222,11111222,99999999' 
TABS,ioos:station:wmo:42048:1,2006-02-01T10:00:00Z,27.9396,-96.8429,2.0,228.4873534,23.94455679,-99999.0,'11111222,11111222,99999999' 
TABS,ioos:station:wmo:42048:1,2006-02-01T10:30:00Z,27.9396,-96.8429,2.0,226.3687121,24.56483055,-99999.0,'11111222,11111222,99999999' 
TABS,ioos:station:wmo:42048:1,2006-02-01T11:00:00Z,27.9396,-96.8429,2.0,225.204931,25.66106974,-99999.0,'11111222,11111222,99999999' 
TABS,ioos:station:wmo:42048:1,2006-02-01T11:30:00Z,27.9396,-96.8429,2.0,220.0245746,26.09154652,-99999.0,'11111222,11111222,99999999' 
TABS,ioos:station:wmo:42048:1,2006-02-01T12:00:00Z,27.9396,-96.8429,2.0,225.0297608,26.94077208,-99999.0,'11111222,11111222,99999999' 
TABS,ioos:station:wmo:42048:1,2006-02-01T12:30:00Z,27.9396,-96.8429,2.0,221.3278225,25.39483806,-99999.0,'11111222,11111222,99999999' 
TABS,ioos:station:wmo:42048:1,2006-02-01T13:00:00Z,27.9396,-96.8429,2.0,225.4060296,26.92023217,-99999.0,'11111222,11111222,99999999' 
TABS,ioos:station:wmo:42048:1,2006-02-01T13:30:00Z,27.9396,-96.8429,2.0,221.5690124,27.41416057,-99999.0,'11111222,11111222,99999999' 
TABS,ioos:station:wmo:42048:1,2006-02-01T14:00:00Z,27.9396,-96.8429,2.0,222.9447648,25.8330815,-99999.0,'11111222,11111222,99999999' 
TABS,ioos:station:wmo:42048:1,2006-02-01T14:30:00Z,27.9396,-96.8429,2.0,222.5477163,25.28807822,-99999.0,'11111222,11111222,99999999' 
TABS,ioos:station:wmo:42048:1,2006-02-01T15:00:00Z,27.9396,-96.8429,2.0,222.3304215,27.02666091,-99999.0,'11111222,11111222,99999999' 
TABS,ioos:station:wmo:42048:1,2006-02-01T15:30:00Z,27.9396,-96.8429,2.0,229.9532534,24.97637484,-99999.0,'11111222,11111222,99999999' 
TABS,ioos:station:wmo:42048:1,2006-02-01T16:00:00Z,27.9396,-96.8429,2.0,221.5609418,23.69538563,-99999.0,'11111222,11111222,99999999' 
TABS,ioos:station:wmo:42048:1,2006-02-01T16:30:00Z,27.9396,-96.8429,2.0,230.637214,28.14462826,-99999.0,'11111222,11111222,99999999' 
TABS,ioos:station:wmo:42048:1,2006-02-01T17:00:00Z,27.9396,-96.8429,2.0,218.0664432,24.89543131,-99999.0,'11111222,11111222,99999999' 
TABS,ioos:station:wmo:42048:1,2006-02-01T17:30:00Z,27.9396,-96.8429,2.0,230.9097989,27.88092538,-99999.0,'11111222,11111222,99999999' 
TABS,ioos:station:wmo:42048:1,2006-02-01T18:00:00Z,27.9396,-96.8429,2.0,226.4735749,24.46691848,-99999.0,'11111222,11111222,99999999' 
TABS,ioos:station:wmo:42048:1,2006-02-01T18:30:00Z,27.9396,-96.8429,2.0,228.8681432,21.80027523,-99999.0,'11111222,11111222,99999999' 
TABS,ioos:station:wmo:42048:1,2006-02-01T19:00:00Z,27.9396,-96.8429,2.0,236.3562544,20.4323885,-99999.0,'11111222,11111222,99999999' 
TABS,ioos:station:wmo:42048:1,2006-02-01T19:30:00Z,27.9396,-96.8429,2.0,230.9353721,22.56454741,-99999.0,'11111222,11111222,99999999' 
TABS,ioos:station:wmo:42048:1,2006-02-01T20:00:00Z,27.9396,-96.8429,2.0,241.1382205,21.31790327,-99999.0,'11111222,11111222,99999999' 
TABS,ioos:station:wmo:42048:1,2006-02-01T20:30:00Z,27.9396,-96.8429,2.0,227.7826986,18.34985014,-99999.0,'11111222,11111222,99999999' 
TABS,ioos:station:wmo:42048:1,2006-02-01T21:00:00Z,27.9396,-96.8429,2.0,240.8951469,22.30655957,-99999.0,'11111222,11111222,99999999' 
TABS,ioos:station:wmo:42048:1,2006-02-01T21:30:00Z,27.9396,-96.8429,2.0,237.943195,21.4034857,-99999.0,'11111222,11111222,99999999' 
TABS,ioos:station:wmo:42048:1,2006-02-01T22:00:00Z,27.9396,-96.8429,2.0,237.2682752,17.90268136,-99999.0,'11111222,11111222,99999999' 
TABS,ioos:station:wmo:42048:1,2006-02-01T22:30:00Z,27.9396,-96.8429,2.0,235.8784072,18.05877626,-99999.0,'11111222,11111222,99999999' 
TABS,ioos:station:wmo:42048:1,2006-02-01T23:00:00Z,27.9396,-96.8429,2.0,248.1327814,14.63280219,-99999.0,'11111222,11111222,99999999' 
TABS,ioos:station:wmo:42048:1,2006-02-01T23:30:00Z,27.9396,-96.8429,2.0,230.3645063,16.78955032,-99999.0,'11111222,11111222,99999999' 
TABS,ioos:station:wmo:42048:1,2006-02-02T00:00:00Z,27.9396,-96.8429,2.0,237.1830248,15.64713712,-99999.0,'11111222,11111222,99999999' 
TABS,ioos:station:wmo:42048:1,2006-02-02T00:30:00Z,27.9396,-96.8429,2.0,233.0710898,17.57600922,-99999.0,'11111222,11111222,99999999' 
TABS,ioos:station:wmo:42048:1,2006-02-02T01:00:00Z,27.9396,-96.8429,2.0,222.21221,17.01190466,-99999.0,'11111222,11111222,99999999' 
TABS,ioos:station:wmo:42048:1,2006-02-02T01:30:00Z,27.9396,-96.8429,2.0,229.9836413,16.03416665,-99999.0,'11111222,11111222,99999999' 
TABS,ioos:station:wmo:42048:1,2006-02-02T02:00:00Z,27.9396,-96.8429,2.0,219.3155357,16.77728524,-99999.0,'11111222,11111222,99999999' 
TABS,ioos:station:wmo:42048:1,2006-02-02T02:30:00Z,27.9396,-96.8429,2.0,226.6111572,13.82940707,-99999.0,'11111222,11111222,99999999' 
TABS,ioos:station:wmo:42048:1,2006-02-02T03:00:00Z,27.9396,-96.8429,2.0,221.584645,15.66902677,-99999.0,'11111222,11111222,99999999' 
TABS,ioos:station:wmo:42048:1,2006-02-02T03:30:00Z,27.9396,-96.8429,2.0,224.9996843,15.2027958,-99999.0,'11111222,11111222,99999999' 
TABS,ioos:station:wmo:42048:1,2006-02-02T04:00:00Z,27.9396,-96.8429,2.0,222.644697,13.0783791,-99999.0,'11111222,11111222,99999999' 
TABS,ioos:station:wmo:42048:1,2006-02-02T04:30:00Z,27.9396,-96.8429,2.0,220.4176366,13.89663628,-99999.0,'11111222,11111222,99999999' 
TABS,ioos:station:wmo:42048:1,2006-02-02T05:00:00Z,27.9396,-96.8429,2.0,228.9772429,15.49467651,-99999.0,'11111222,11111222,99999999' 
TABS,ioos:station:wmo:42048:1,2006-02-02T05:30:00Z,27.9396,-96.8429,2.0,223.7098849,12.87967779,-99999.0,'11111222,11111222,99999999' 
TABS,ioos:station:wmo:42048:1,2006-02-02T06:00:00Z,27.9396,-96.8429,2.0,226.6123114,12.56319227,-99999.0,'11111222,11111222,99999999' 
TABS,ioos:station:wmo:42048:1,2006-02-02T06:30:00Z,27.9396,-96.8429,2.0,224.25096,13.52810778,-99999.0,'11111222,11111222,99999999' 
TABS,ioos:station:wmo:42048:1,2006-02-02T07:00:00Z,27.9396,-96.8429,2.0,233.1792457,11.58000432,-99999.0,'11111222,11111222,99999999' 
TABS,ioos:station:wmo:42048:1,2006-02-02T07:30:00Z,27.9396,-96.8429,2.0,227.5645254,11.21888141,-99999.0,'11111222,11111222,99999999' 
TABS,ioos:station:wmo:42048:1,2006-02-02T08:00:00Z,27.9396,-96.8429,2.0,231.4523473,11.13677242,-99999.0,'11111222,11111222,99999999' 
TABS,ioos:station:wmo:42048:1,2006-02-02T08:30:00Z,27.9396,-96.8429,2.0,244.882028,11.68494758,-99999.0,'11111222,11111222,99999999' 
TABS,ioos:station:wmo:42048:1,2006-02-02T09:00:00Z,27.9396,-96.8429,2.0,232.3911249,9.618799301,-99999.0,'11133222,11111222,99999999' 
TABS,ioos:station:wmo:42048:1,2006-02-02T09:30:00Z,27.9396,-96.8429,2.0,223.8434154,7.709033662,-99999.0,'11133222,11111222,99999999' 
TABS,ioos:station:wmo:42048:1,2006-02-02T10:00:00Z,27.9396,-96.8429,2.0,243.6187211,8.349520944,-99999.0,'11133222,11111222,99999999' 
TABS,ioos:station:wmo:42048:1,2006-02-02T10:30:00Z,27.9396,-96.8429,2.0,229.3747165,7.8789149,-99999.0,'11133222,11111222,99999999' 
TABS,ioos:station:wmo:42048:1,2006-02-02T11:00:00Z,27.9396,-96.8429,2.0,226.648025,5.899711857,-99999.0,'11133222,11111222,99999999' 
TABS,ioos:station:wmo:42048:1,2006-02-02T11:30:00Z,27.9396,-96.8429,2.0,231.2658678,7.255839028,-99999.0,'11133222,11111222,99999999' 
TABS,ioos:station:wmo:42048:1,2006-02-02T12:00:00Z,27.9396,-96.8429,2.0,245.0077422,2.769295939,-99999.0,'11133222,11111222,99999999' 
TABS,ioos:station:wmo:42048:1,2006-02-02T12:30:00Z,27.9396,-96.8429,2.0,230.5718691,9.321287465,-99999.0,'11133222,11111222,99999999' 
TABS,ioos:station:wmo:42048:1,2006-02-02T13:00:00Z,27.9396,-96.8429,2.0,225.3377078,4.79426741,-99999.0,'11133222,11111222,99999999' 
TABS,ioos:station:wmo:42048:1,2006-02-02T13:30:00Z,27.9396,-96.8429,2.0,237.2800009,4.421594735,-99999.0,'11133222,11111222,99999999' 
TABS,ioos:station:wmo:42048:1,2006-02-02T14:00:00Z,27.9396,-96.8429,2.0,162.3497066,1.616075493,-99999.0,'11133222,11111222,99999999' 
TABS,ioos:station:wmo:42048:1,2006-02-02T14:30:00Z,27.9396,-96.8429,2.0,196.7215521,2.432878953,-99999.0,'11133222,11111222,99999999' 
TABS,ioos:station:wmo:42048:1,2006-02-02T15:00:00Z,27.9396,-96.8429,2.0,22.22518894,2.009278477,-99999.0,'11133222,11111222,99999999' 
TABS,ioos:station:wmo:42048:1,2006-02-02T15:30:00Z,27.9396,-96.8429,2.0,98.53074566,2.831324778,-99999.0,'11133222,11111222,99999999' 
TABS,ioos:station:wmo:42048:1,2006-02-02T16:00:00Z,27.9396,-96.8429,2.0,167.9050607,0.572712843,-99999.0,'11133222,11111222,99999999' 
TABS,ioos:station:wmo:42048:1,2006-02-02T16:30:00Z,27.9396,-96.8429,2.0,42.51055813,1.953458472,-99999.0,'11133222,11111222,99999999' 
TABS,ioos:station:wmo:42048:1,2006-02-02T17:00:00Z,27.9396,-96.8429,2.0,85.45999552,4.042684751,-99999.0,'11133222,11111222,99999999' 
TABS,ioos:station:wmo:42048:1,2006-02-02T17:30:00Z,27.9396,-96.8429,2.0,64.17373907,6.243620744,-99999.0,'11133222,11111222,99999999' 
TABS,ioos:station:wmo:42048:1,2006-02-02T18:00:00Z,27.9396,-96.8429,2.0,56.13736024,6.44287203,-99999.0,'11133222,11111222,99999999' 
TABS,ioos:station:wmo:42048:1,2006-02-02T18:30:00Z,27.9396,-96.8429,2.0,73.06813369,5.425172808,-99999.0,'11133222,11111222,99999999' 
TABS,ioos:station:wmo:42048:1,2006-02-02T19:00:00Z,27.9396,-96.8429,2.0,81.86991666,10.46518036,-99999.0,'11111222,11111222,99999999' 
TABS,ioos:station:wmo:42048:1,2006-02-02T19:30:00Z,27.9396,-96.8429,2.0,73.32782425,8.121409976,-99999.0,'11133222,11111222,99999999' 
TABS,ioos:station:wmo:42048:1,2006-02-02T20:00:00Z,27.9396,-96.8429,2.0,57.20810588,12.7402551,-99999.0,'11111222,11111222,99999999' 
TABS,ioos:station:wmo:42048:1,2006-02-02T20:30:00Z,27.9396,-96.8429,2.0,55.11854445,11.47090668,-99999.0,'11111222,11111222,99999999' 
TABS,ioos:station:wmo:42048:1,2006-02-02T21:00:00Z,27.9396,-96.8429,2.0,44.25604777,15.2465078,-99999.0,'11111222,11111222,99999999' 
TABS,ioos:station:wmo:42048:1,2006-02-02T21:30:00Z,27.9396,-96.8429,2.0,54.34475528,15.28543424,-99999.0,'11111222,11111222,99999999' 
TABS,ioos:station:wmo:42048:1,2006-02-02T22:00:00Z,27.9396,-96.8429,2.0,56.26188793,16.51065716,-99999.0,'11111222,11111222,99999999' 
TABS,ioos:station:wmo:42048:1,2006-02-02T22:30:00Z,27.9396,-96.8429,2.0,56.20065116,17.43703243,-99999.0,'11111222,11111222,99999999' 
TABS,ioos:station:wmo:42048:1,2006-02-02T23:00:00Z,27.9396,-96.8429,2.0,61.41678411,20.19080236,-99999.0,'11111222,11111222,99999999' 
TABS,ioos:station:wmo:42048:1,2006-02-02T23:30:00Z,27.9396,-96.8429,2.0,57.04781598,20.46181321,-99999.0,'11111222,11111222,99999999' 
TABS,ioos:station:wmo:42048:1,2006-02-03T00:00:00Z,27.9396,-96.8429,2.0,58.06585368,17.92245798,-99999.0,'11111222,11111222,99999999' 
TABS,ioos:station:wmo:42048:1,2006-02-03T00:30:00Z,27.9396,-96.8429,2.0,59.23798552,18.51510194,-99999.0,'11111222,11111222,99999999' 
TABS,ioos:station:wmo:42048:1,2006-02-03T01:00:00Z,27.9396,-96.8429,2.0,63.09002049,19.31103312,-99999.0,'11111222,11111222,99999999' 
TABS,ioos:station:wmo:42048:1,2006-02-03T01:30:00Z,27.9396,-96.8429,2.0,68.57616548,19.16417491,-99999.0,'11111222,11111222,99999999' 
TABS,ioos:station:wmo:42048:1,2006-02-03T02:00:00Z,27.9396,-96.8429,2.0,72.73465699,17.35187022,-99999.0,'11111222,11111222,99999999' 
TABS,ioos:station:wmo:42048:1,2006-02-03T02:30:00Z,27.9396,-96.8429,2.0,69.82086332,16.72671217,-99999.0,'11111222,11111222,99999999' 
TABS,ioos:station:wmo:42048:1,2006-02-03T03:00:00Z,27.9396,-96.8429,2.0,67.57277763,17.85010084,-99999.0,'11111222,11111222,99999999' 
TABS,ioos:station:wmo:42048:1,2006-02-03T03:30:00Z,27.9396,-96.8429,2.0,70.02504464,18.12007174,-99999.0,'11111222,11111222,99999999' 
TABS,ioos:station:wmo:42048:1,2006-02-03T04:00:00Z,27.9396,-96.8429,2.0,69.41078799,16.15168103,-99999.0,'11111222,11111222,99999999' 
TABS,ioos:station:wmo:42048:1,2006-02-03T04:30:00Z,27.9396,-96.8429,2.0,71.34879941,15.91585687,-99999.0,'11111222,11111222,99999999' 
TABS,ioos:station:wmo:42048:1,2006-02-03T05:00:00Z,27.9396,-96.8429,2.0,75.27288559,10.66021576,-99999.0,'11111222,11111222,99999999' 
TABS,ioos:station:wmo:42048:1,2006-02-03T05:30:00Z,27.9396,-96.8429,2.0,79.1016456,10.10220273,-99999.0,'11111222,11111222,99999999' 
TABS,ioos:station:wmo:42048:1,2006-02-03T06:00:00Z,27.9396,-96.8429,2.0,58.07018897,8.848869984,-99999.0,'11133222,11111222,99999999' 
TABS,ioos:station:wmo:42048:1,2006-02-03T06:30:00Z,27.9396,-96.8429,2.0,52.72807495,8.834217566,-99999.0,'11133222,11111222,99999999' 
TABS,ioos:station:wmo:42048:1,2006-02-03T07:00:00Z,27.9396,-96.8429,2.0,54.91082685,7.723729669,-99999.0,'11133222,11111222,99999999' 
TABS,ioos:station:wmo:42048:1,2006-02-03T07:30:00Z,27.9396,-96.8429,2.0,42.44296977,7.290459519,-99999.0,'11133222,11111222,99999999' 
TABS,ioos:station:wmo:42048:1,2006-02-03T08:00:00Z,27.9396,-96.8429,2.0,26.27680105,10.66170718,-99999.0,'11111222,11111222,99999999' 
TABS,ioos:station:wmo:42048:1,2006-02-03T08:30:00Z,27.9396,-96.8429,2.0,37.9596747,11.88414911,-99999.0,'11111222,11111222,99999999' 
TABS,ioos:station:wmo:42048:1,2006-02-03T09:00:00Z,27.9396,-96.8429,2.0,42.07232708,10.52134022,-99999.0,'11111222,11111222,99999999' 
TABS,ioos:station:wmo:42048:1,2006-02-03T09:30:00Z,27.9396,-96.8429,2.0,28.94273657,11.42720001,-99999.0,'11111222,11111222,99999999' 
TABS,ioos:station:wmo:42048:1,2006-02-03T10:00:00Z,27.9396,-96.8429,2.0,39.10789139,13.98266427,-99999.0,'11111222,11111222,99999999' 
TABS,ioos:station:wmo:42048:1,2006-02-03T10:30:00Z,27.9396,-96.8429,2.0,32.05949261,12.37760074,-99999.0,'11111222,11111222,99999999' 
TABS,ioos:station:wmo:42048:1,2006-02-03T11:00:00Z,27.9396,-96.8429,2.0,31.97249302,14.71171302,-99999.0,'11111222,11111222,99999999' 
TABS,ioos:station:wmo:42048:1,2006-02-03T11:30:00Z,27.9396,-96.8429,2.0,34.34998397,14.69220882,-99999.0,'11111222,11111222,99999999' 
TABS,ioos:station:wmo:42048:1,2006-02-03T12:00:00Z,27.9396,-96.8429,2.0,35.92774426,15.20205578,-99999.0,'11111222,11111222,99999999' 
TABS,ioos:station:wmo:42048:1,2006-02-03T12:30:00Z,27.9396,-96.8429,2.0,37.3040715,15.31243939,-99999.0,'11111222,11111222,99999999' 
TABS,ioos:station:wmo:42048:1,2006-02-03T13:00:00Z,27.9396,-96.8429,2.0,40.62564006,15.38904805,-99999.0,'11111222,11111222,99999999' 
TABS,ioos:station:wmo:42048:1,2006-02-03T13:30:00Z,27.9396,-96.8429,2.0,36.65623316,15.54410821,-99999.0,'11111222,11111222,99999999' 
TABS,ioos:station:wmo:42048:1,2006-02-03T14:00:00Z,27.9396,-96.8429,2.0,41.36754893,16.62920623,-99999.0,'11111222,11111222,99999999' 
TABS,ioos:station:wmo:42048:1,2006-02-03T14:30:00Z,27.9396,-96.8429,2.0,44.41808903,17.40279575,-99999.0,'11111222,11111222,99999999' 
TABS,ioos:station:wmo:42048:1,2006-02-03T15:00:00Z,27.9396,-96.8429,2.0,40.93728515,16.467474,-99999.0,'11111222,11111222,99999999' 
TABS,ioos:station:wmo:42048:1,2006-02-03T15:30:00Z,27.9396,-96.8429,2.0,44.3947398,18.73937566,-99999.0,'11111222,11111222,99999999' 
TABS,ioos:station:wmo:42048:1,2006-02-03T16:00:00Z,27.9396,-96.8429,2.0,47.82539038,19.0797196,-99999.0,'11111222,11111222,99999999' 
TABS,ioos:station:wmo:42048:1,2006-02-03T16:30:00Z,27.9396,-96.8429,2.0,55.21045237,19.94514477,-99999.0,'11111222,11111222,99999999' 
TABS,ioos:station:wmo:42048:1,2006-02-03T17:00:00Z,27.9396,-96.8429,2.0,53.15443556,23.63000212,-99999.0,'11111222,11111222,99999999' 
TABS,ioos:station:wmo:42048:1,2006-02-03T17:30:00Z,27.9396,-96.8429,2.0,52.04366127,24.6804376,-99999.0,'11111222,11111222,99999999' 
TABS,ioos:station:wmo:42048:1,2006-02-03T18:00:00Z,27.9396,-96.8429,2.0,53.17043683,25.62400632,-99999.0,'11111222,11111222,99999999' 
TABS,ioos:station:wmo:42048:1,2006-02-03T18:30:00Z,27.9396,-96.8429,2.0,56.80414267,25.40621381,-99999.0,'11111222,11111222,99999999' 
TABS,ioos:station:wmo:42048:1,2006-02-03T19:00:00Z,27.9396,-96.8429,2.0,59.82875182,26.1646116,-99999.0,'11111222,11111222,99999999' 
TABS,ioos:station:wmo:42048:1,2006-02-03T19:30:00Z,27.9396,-96.8429,2.0,59.65592211,26.80165107,-99999.0,'11111222,11111222,99999999' 
TABS,ioos:station:wmo:42048:1,2006-02-03T20:00:00Z,27.9396,-96.8429,2.0,64.18565457,25.26079175,-99999.0,'11111222,11111222,99999999' 
TABS,ioos:station:wmo:42048:1,2006-02-03T20:30:00Z,27.9396,-96.8429,2.0,62.50490067,24.51948001,-99999.0,'11111222,11111222,99999999' 
TABS,ioos:station:wmo:42048:1,2006-02-03T21:00:00Z,27.9396,-96.8429,2.0,89.95910376,14.01000357,-99999.0,'11111222,11111222,99999999' 
TABS,ioos:station:wmo:42048:1,2006-02-03T21:30:00Z,27.9396,-96.8429,2.0,86.49271872,9.317451368,-99999.0,'11133222,11111222,99999999' 
TABS,ioos:station:wmo:42048:1,2006-02-03T22:00:00Z,27.9396,-96.8429,2.0,67.66184603,5.946225694,-99999.0,'11133222,11111222,99999999' 
TABS,ioos:station:wmo:42048:1,2006-02-03T22:30:00Z,27.9396,-96.8429,2.0,51.99056323,2.614517164,-99999.0,'11133222,11111222,99999999' 
TABS,ioos:station:wmo:42048:1,2006-02-03T23:00:00Z,27.9396,-96.8429,2.0,102.2746974,2.445914962,-99999.0,'11133222,11111222,99999999' 
TABS,ioos:station:wmo:42048:1,2006-02-03T23:30:00Z,27.9396,-96.8429,2.0,46.72420275,2.115206846,-99999.0,'11133222,11111222,99999999' 
TABS,ioos:station:wmo:42048:1,2006-02-04T00:00:00Z,27.9396,-96.8429,2.0,343.7976563,3.978002011,-99999.0,'11133222,11111222,99999999' 
TABS,ioos:station:wmo:42048:1,2006-02-04T00:30:00Z,27.9396,-96.8429,2.0,358.8445473,6.94141196,-99999.0,'11133222,11111222,99999999' 
TABS,ioos:station:wmo:42048:1,2006-02-04T01:00:00Z,27.9396,-96.8429,2.0,247.093863,3.083115308,-99999.0,'11133222,11111222,99999999' 
TABS,ioos:station:wmo:42048:1,2006-02-04T01:30:00Z,27.9396,-96.8429,2.0,210.6994403,4.093714695,-99999.0,'11133222,11111222,99999999' 
TABS,ioos:station:wmo:42048:1,2006-02-04T02:00:00Z,27.9396,-96.8429,2.0,220.6836669,9.019977827,-99999.0,'11133222,11111222,99999999' 
TABS,ioos:station:wmo:42048:1,2006-02-04T02:30:00Z,27.9396,-96.8429,2.0,223.6321435,7.999656243,-99999.0,'11133222,11111222,99999999' 
TABS,ioos:station:wmo:42048:1,2006-02-04T03:00:00Z,27.9396,-96.8429,2.0,234.6423005,5.910059221,-99999.0,'11133222,11111222,99999999' 
TABS,ioos:station:wmo:42048:1,2006-02-04T03:30:00Z,27.9396,-96.8429,2.0,232.6467083,6.642236069,-99999.0,'11133222,11111222,99999999' 
TABS,ioos:station:wmo:42048:1,2006-02-04T04:00:00Z,27.9396,-96.8429,2.0,202.4888432,9.437716885,-99999.0,'11133222,11111222,99999999' 
TABS,ioos:station:wmo:42048:1,2006-02-04T04:30:00Z,27.9396,-96.8429,2.0,219.7790453,11.19042448,-99999.0,'11111222,11111222,99999999' 
TABS,ioos:station:wmo:42048:1,2006-02-04T05:00:00Z,27.9396,-96.8429,2.0,209.3442031,9.407023971,-99999.0,'11133222,11111222,99999999' 
TABS,ioos:station:wmo:42048:1,2006-02-04T05:30:00Z,27.9396,-96.8429,2.0,228.8949774,10.61698639,-99999.0,'11111222,11111222,99999999' 
TABS,ioos:station:wmo:42048:1,2006-02-04T06:00:00Z,27.9396,-96.8429,2.0,226.2811462,8.536913962,-99999.0,'11133222,11111222,99999999' 
TABS,ioos:station:wmo:42048:1,2006-02-04T06:30:00Z,27.9396,-96.8429,2.0,220.7855156,10.10358847,-99999.0,'11111222,11111222,99999999' 
TABS,ioos:station:wmo:42048:1,2006-02-04T07:00:00Z,27.9396,-96.8429,2.0,205.5596949,8.923284149,-99999.0,'11133222,11111222,99999999' 
TABS,ioos:station:wmo:42048:1,2006-02-04T07:30:00Z,27.9396,-96.8429,2.0,217.238452,9.320193131,-99999.0,'11133222,11111222,99999999' 
TABS,ioos:station:wmo:42048:1,2006-02-04T08:00:00Z,27.9396,-96.8429,2.0,212.7787936,7.85,-99999.0,'11133222,11111222,99999999' 
TABS,ioos:station:wmo:42048:1,2006-02-04T08:30:00Z,27.9396,-96.8429,2.0,216.1064721,7.958705925,-99999.0,'11133222,11111222,99999999' 
TABS,ioos:station:wmo:42048:1,2006-02-04T09:00:00Z,27.9396,-96.8429,2.0,223.13143,7.591291063,-99999.0,'11133222,11111222,99999999' 
TABS,ioos:station:wmo:42048:1,2006-02-04T09:30:00Z,27.9396,-96.8429,2.0,234.2005896,5.350934498,-99999.0,'11133222,11111222,99999999' 
TABS,ioos:station:wmo:42048:1,2006-02-04T10:00:00Z,27.9396,-96.8429,2.0,219.9529018,5.46591255,-99999.0,'11133222,11111222,99999999' 
TABS,ioos:station:wmo:42048:1,2006-02-04T10:30:00Z,27.9396,-96.8429,2.0,234.5281347,7.048099034,-99999.0,'11133222,11111222,99999999' 
TABS,ioos:station:wmo:42048:1,2006-02-04T11:00:00Z,27.9396,-96.8429,2.0,220.5485207,7.106644778,-99999.0,'11133222,11111222,99999999' 
TABS,ioos:station:wmo:42048:1,2006-02-04T11:30:00Z,27.9396,-96.8429,2.0,241.9117516,6.562941414,-99999.0,'11133222,11111222,99999999' 
TABS,ioos:station:wmo:42048:1,2006-02-04T12:00:00Z,27.9396,-96.8429,2.0,217.9950535,4.174805385,-99999.0,'11133222,11111222,99999999' 
TABS,ioos:station:wmo:42048:1,2006-02-04T12:30:00Z,27.9396,-96.8429,2.0,231.7452482,4.635353277,-99999.0,'11133222,11111222,99999999' 
TABS,ioos:station:wmo:42048:1,2006-02-04T13:00:00Z,27.9396,-96.8429,2.0,215.073462,2.297128642,-99999.0,'11133222,11111222,99999999' 
TABS,ioos:station:wmo:42048:1,2006-02-04T13:30:00Z,27.9396,-96.8429,2.0,213.9567334,4.762152874,-99999.0,'11133222,11111222,99999999' 
TABS,ioos:station:wmo:42048:1,2006-02-04T14:00:00Z,27.9396,-96.8429,2.0,184.8508943,2.719742635,-99999.0,'11133222,11111222,99999999' 
TABS,ioos:station:wmo:42048:1,2006-02-04T14:30:00Z,27.9396,-96.8429,2.0,118.1830798,3.959419149,-99999.0,'11133222,11111222,99999999' 
TABS,ioos:station:wmo:42048:1,2006-02-04T15:00:00Z,27.9396,-96.8429,2.0,141.2695627,6.34534475,-99999.0,'11133222,11111222,99999999' 
TABS,ioos:station:wmo:42048:1,2006-02-04T15:30:00Z,27.9396,-96.8429,2.0,149.8103238,4.315298367,-99999.0,'11133222,11111222,99999999' 
TABS,ioos:station:wmo:42048:1,2006-02-04T16:00:00Z,27.9396,-96.8429,2.0,130.6822211,4.602184264,-99999.0,'11133222,11111222,99999999' 